Radiation Dose at Monitoring Post of Fukushima Daini Nuclear Power Station
Date,Time,MP-1(microSv/h),MP-2(microSv/h),MP-3(microSv/h),MP-4(microSv/h),MP-5(microSv/h),MP-6(microSv/h),MP-7(microSv/h),Wind Direction,Wind Velocity(m/s),Rain
2015/11/03,00:00,0.494,0.278,0.516,0.473,0.445,0.230,0.198,south,0.9,No
2015/11/03,00:10,0.497,0.280,0.516,0.472,0.448,0.228,0.198,south,0.9,No
2015/11/03,00:20,0.494,0.279,0.515,0.474,0.445,0.230,0.198,south-southwest,0.9,No
2015/11/03,00:30,0.498,0.278,0.516,0.470,0.447,0.229,0.198,west-northwest,1.4,No
2015/11/03,00:40,0.496,0.279,0.514,0.475,0.447,0.229,0.197,west-southwest,0.8,No
2015/11/03,00:50,0.496,0.278,0.517,0.471,0.447,0.229,0.198,southwest,0.8,No
2015/11/03,01:00,0.497,0.280,0.514,0.473,0.449,0.229,0.197,-,CALM,No
2015/11/03,01:10,0.493,0.279,0.515,0.472,0.446,0.229,0.199,-,CALM,No
2015/11/03,01:20,0.498,0.278,0.516,0.472,0.448,0.229,0.200,-,CALM,No
2015/11/03,01:30,0.495,0.279,0.512,0.473,0.447,0.229,0.199,northeast,1.0,No
2015/11/03,01:40,0.496,0.279,0.517,0.472,0.443,0.228,0.198,north-northeast,1.4,No
2015/11/03,01:50,0.496,0.278,0.512,0.473,0.448,0.230,0.199,north-northeast,1.6,No
2015/11/03,02:00,0.495,0.280,0.517,0.471,0.445,0.229,0.198,north-northeast,1.9,No
2015/11/03,02:10,0.496,0.278,0.515,0.473,0.447,0.228,0.198,north-northeast,2.0,No
2015/11/03,02:20,0.494,0.280,0.516,0.474,0.446,0.230,0.199,north-northeast,1.3,No
2015/11/03,02:30,0.498,0.279,0.516,0.472,0.445,0.229,0.198,north,1.6,No
2015/11/03,02:40,0.494,0.277,0.513,0.472,0.449,0.230,0.198,north-northwest,1.1,No
2015/11/03,02:50,0.497,0.280,0.519,0.472,0.447,0.229,0.199,west-northwest,1.4,No
2015/11/03,03:00,0.495,0.279,0.514,0.475,0.448,0.230,0.199,-,CALM,No
2015/11/03,03:10,0.495,0.280,0.517,0.471,0.446,0.230,0.199,south,0.8,No
2015/11/03,03:20,0.496,0.279,0.514,0.473,0.447,0.229,0.199,west-northwest,0.9,No
2015/11/03,03:30,0.495,0.278,0.516,0.473,0.447,0.228,0.198,northwest,1.2,Yes
2015/11/03,03:40,0.498,0.280,0.517,0.471,0.445,0.229,0.199,west-northwest,1.1,Yes
2015/11/03,03:50,0.494,0.279,0.515,0.474,0.449,0.229,0.199,west-northwest,1.7,No
2015/11/03,04:00,0.498,0.280,0.517,0.472,0.448,0.229,0.198,west-northwest,1.6,Yes
2015/11/03,04:10,0.494,0.280,0.513,0.473,0.449,0.228,0.200,west-southwest,1.7,No
2015/11/03,04:20,0.496,0.280,0.517,0.473,0.448,0.230,0.199,-,CALM,Yes
2015/11/03,04:30,0.496,0.280,0.514,0.471,0.447,0.229,0.199,south-southeast,1.3,Yes
2015/11/03,04:40,0.495,0.279,0.515,0.475,0.449,0.230,0.199,south,2.9,Yes
2015/11/03,04:50,0.496,0.281,0.518,0.472,0.447,0.230,0.198,south-southeast,2.3,No
2015/11/03,05:00,0.494,0.279,0.510,0.474,0.449,0.230,0.198,south-southeast,2.0,No
2015/11/03,05:10,0.496,0.279,0.519,0.472,0.446,0.230,0.199,southeast,1.4,No
2015/11/03,05:20,0.494,0.279,0.513,0.475,0.447,0.229,0.198,south-southeast,2.0,No
2015/11/03,05:30,0.497,0.278,0.517,0.474,0.450,0.229,0.197,south,2.1,No
2015/11/03,05:40,0.495,0.280,0.516,0.471,0.447,0.229,0.199,south,0.9,No
2015/11/03,05:50,0.499,0.279,0.517,0.473,0.450,0.230,0.199,east-southeast,0.8,Yes
2015/11/03,06:00,0.496,0.279,0.516,0.471,0.446,0.230,0.199,east,0.8,No
2015/11/03,06:10,0.496,0.279,0.515,0.474,0.448,0.229,0.200,northeast,0.7,No
2015/11/03,06:20,0.498,0.280,0.519,0.473,0.448,0.229,0.198,north,0.5,No
2015/11/03,06:30,0.496,0.281,0.512,0.472,0.448,0.229,0.198,east-northeast,1.4,No
2015/11/03,06:40,0.497,0.278,0.518,0.474,0.449,0.230,0.198,east-northeast,0.5,No
2015/11/03,06:50,0.495,0.278,0.515,0.471,0.446,0.230,0.197,-,CALM,No
2015/11/03,07:00,0.497,0.280,0.516,0.473,0.449,0.229,0.198,north-northwest,0.5,No
2015/11/03,07:10,0.494,0.280,0.516,0.471,0.447,0.230,0.199,north,1.4,No
2015/11/03,07:20,0.497,0.280,0.514,0.473,0.448,0.230,0.197,north,2.7,No
2015/11/03,07:30,0.497,0.279,0.518,0.473,0.446,0.229,0.197,north,2.6,No
2015/11/03,07:40,0.493,0.279,0.514,0.472,0.446,0.229,0.199,north-northeast,3.5,No
2015/11/03,07:50,0.498,0.280,0.519,0.474,0.448,0.229,0.198,north-northeast,2.5,No
2015/11/03,08:00,0.494,0.279,0.513,0.471,0.445,0.230,0.199,north-northeast,3.9,No
2015/11/03,08:10,0.498,0.281,0.518,0.474,0.450,0.229,0.199,north,4.2,No
2015/11/03,08:20,0.493,0.280,0.515,0.470,0.447,0.230,0.200,north,5.3,No
2015/11/03,08:30,0.499,0.280,0.518,0.474,0.451,0.231,0.199,north-northwest,6.1,No
2015/11/03,08:40,0.496,0.278,0.514,0.471,0.446,0.231,0.198,northwest,4.8,No
2015/11/03,08:50,0.498,0.281,0.517,0.474,0.450,0.228,0.198,north-northwest,5.2,No
2015/11/03,09:00,0.496,0.279,0.515,0.474,0.448,0.230,0.198,north-northwest,5.3,No
2015/11/03,09:10,0.497,0.281,0.515,0.475,0.449,0.228,0.198,north,5.3,No
2015/11/03,09:20,0.496,0.278,0.516,0.469,0.446,0.229,0.199,north-northwest,5.3,No
2015/11/03,09:30,0.497,0.279,0.515,0.474,0.450,0.230,0.197,north,4.5,No
2015/11/03,09:40,0.494,0.279,0.517,0.471,0.447,0.230,0.199,north,3.7,No
2015/11/03,09:50,0.498,0.279,0.513,0.476,0.449,0.230,0.198,north,4.2,No
2015/11/03,10:00,0.494,0.278,0.518,0.472,0.445,0.230,0.198,north,2.7,No
2015/11/03,10:10,0.492,0.277,0.513,0.472,0.448,0.230,0.199,north,3.6,No
2015/11/03,10:20,0.497,0.280,0.517,0.474,0.445,0.229,0.198,north-northeast,5.0,No
2015/11/03,10:30,0.496,0.280,0.515,0.468,0.445,0.230,0.200,north-northeast,7.3,No
2015/11/03,10:40,0.500,0.280,0.516,0.475,0.449,0.229,0.198,north-northeast,6.7,No
2015/11/03,10:50,0.495,0.279,0.513,0.471,0.448,0.231,0.200,north-northeast,6.2,No
2015/11/03,11:00,0.500,0.280,0.519,0.478,0.450,0.230,0.198,north-northeast,6.6,No
2015/11/03,11:10,0.496,0.279,0.516,0.472,0.446,0.230,0.199,north-northeast,6.7,No
2015/11/03,11:20,0.496,0.278,0.514,0.470,0.450,0.228,0.199,north-northeast,6.2,No
2015/11/03,11:30,0.499,0.281,0.517,0.475,0.447,0.230,0.198,northeast,6.2,No
2015/11/03,11:40,0.496,0.279,0.514,0.471,0.451,0.231,0.199,north-northeast,5.6,No
2015/11/03,11:50,0.498,0.281,0.518,0.476,0.448,0.229,0.199,north-northeast,5.1,No
2015/11/03,12:00,0.495,0.279,0.512,0.473,0.451,0.229,0.200,north-northeast,4.5,No
2015/11/03,12:10,0.502,0.282,0.517,0.472,0.451,0.230,0.200,north,3.4,No
2015/11/03,12:20,0.496,0.280,0.513,0.475,0.444,0.230,0.198,north-northeast,3.9,No
2015/11/03,12:30,0.502,0.280,0.511,0.471,0.451,0.231,0.200,northeast,3.1,No
2015/11/03,12:40,0.497,0.279,0.518,0.474,0.448,0.230,0.200,northeast,3.3,No
2015/11/03,12:50,0.500,0.283,0.512,0.474,0.448,0.231,0.200,northeast,3.0,Yes
2015/11/03,13:00,0.498,0.282,0.519,0.473,0.449,0.230,0.199,east-northeast,2.3,Yes
2015/11/03,13:10,0.498,0.286,0.513,0.472,0.447,0.236,0.203,north-northeast,4.2,Yes
2015/11/03,13:20,0.499,0.284,0.520,0.474,0.453,0.237,0.203,northeast,3.5,Yes
2015/11/03,13:30,0.501,0.286,0.516,0.476,0.455,0.237,0.204,north-northeast,1.1,Yes
2015/11/03,13:40,0.496,0.283,0.519,0.476,0.453,0.235,0.202,north-northeast,2.4,Yes
2015/11/03,13:50,0.498,0.283,0.512,0.472,0.453,0.234,0.201,north-northeast,3.2,No
2015/11/03,14:00,0.495,0.282,0.514,0.474,0.447,0.233,0.201,north,3.5,No
2015/11/03,14:10,0.500,0.282,0.514,0.469,0.452,0.231,0.200,north,3.2,No
2015/11/03,14:20,0.493,0.281,0.513,0.471,0.443,0.230,0.200,north,3.5,No
2015/11/03,14:30,0.497,0.279,0.512,0.467,0.449,0.231,0.199,north,3.3,No
2015/11/03,14:40,0.492,0.279,0.509,0.470,0.444,0.229,0.198,north-northwest,2.2,No
2015/11/03,14:50,0.497,0.276,0.510,0.469,0.448,0.228,0.197,north,2.0,No
2015/11/03,15:00,0.494,0.279,0.510,0.471,0.445,0.228,0.198,north-northwest,1.4,No
2015/11/03,15:10,0.494,0.277,0.513,0.467,0.447,0.228,0.198,north-northeast,1.6,No
2015/11/03,15:20,0.492,0.278,0.506,0.469,0.445,0.229,0.196,north-northwest,1.4,No
2015/11/03,15:30,0.494,0.278,0.511,0.468,0.444,0.227,0.197,-,CALM,No
2015/11/03,15:40,0.494,0.277,0.509,0.467,0.446,0.226,0.196,-,CALM,No
2015/11/03,15:50,0.493,0.279,0.514,0.469,0.444,0.227,0.195,north-northeast,2.0,No
2015/11/03,16:00,0.495,0.278,0.509,0.467,0.446,0.225,0.196,north-northeast,2.0,No
2015/11/03,16:10,0.492,0.278,0.511,0.470,0.443,0.227,0.196,northeast,2.5,No
2015/11/03,16:20,0.496,0.278,0.510,0.467,0.447,0.226,0.196,north,2.9,No
2015/11/03,16:30,0.491,0.277,0.510,0.468,0.443,0.227,0.195,north,2.7,No
2015/11/03,16:40,0.496,0.279,0.510,0.467,0.447,0.227,0.196,north-northeast,2.5,No
2015/11/03,16:50,0.492,0.277,0.509,0.468,0.445,0.227,0.195,north-northeast,1.4,No
2015/11/03,17:00,0.493,0.278,0.513,0.468,0.444,0.227,0.195,north-northwest,1.4,No
2015/11/03,17:10,0.493,0.278,0.509,0.467,0.447,0.228,0.195,west-northwest,2.9,No
2015/11/03,17:20,0.494,0.276,0.513,0.470,0.443,0.227,0.195,west-northwest,4.4,No
2015/11/03,17:30,0.494,0.278,0.511,0.468,0.446,0.226,0.196,west-northwest,3.4,No
2015/11/03,17:40,0.490,0.277,0.507,0.467,0.446,0.227,0.196,west-northwest,3.7,No
2015/11/03,17:50,0.495,0.278,0.514,0.469,0.445,0.227,0.196,west-northwest,3.3,No
2015/11/03,18:00,0.493,0.278,0.508,0.466,0.446,0.226,0.196,northwest,3.1,No
2015/11/03,18:10,0.492,0.276,0.511,0.469,0.445,0.227,0.195,west-northwest,4.1,No
2015/11/03,18:20,0.495,0.276,0.511,0.467,0.444,0.228,0.197,west-northwest,3.7,No
2015/11/03,18:30,0.493,0.278,0.510,0.468,0.444,0.227,0.197,northwest,2.9,No
2015/11/03,18:40,0.497,0.277,0.513,0.469,0.443,0.227,0.197,northwest,2.2,No
2015/11/03,18:50,0.493,0.278,0.508,0.466,0.445,0.227,0.196,west-southwest,2.2,No
2015/11/03,19:00,0.492,0.279,0.512,0.468,0.444,0.228,0.194,west,2.3,No
2015/11/03,19:10,0.496,0.277,0.513,0.469,0.443,0.228,0.195,west,1.8,No
2015/11/03,19:20,0.493,0.277,0.509,0.467,0.446,0.228,0.195,north-northwest,2.1,No
2015/11/03,19:30,0.494,0.278,0.514,0.469,0.444,0.228,0.195,north-northwest,1.8,No
2015/11/03,19:40,0.494,0.276,0.508,0.467,0.442,0.227,0.196,northwest,2.1,No
2015/11/03,19:50,0.492,0.277,0.512,0.467,0.444,0.228,0.196,northwest,2.1,No
2015/11/03,20:00,0.496,0.279,0.510,0.469,0.444,0.227,0.195,west,1.6,No
2015/11/03,20:10,0.492,0.277,0.510,0.467,0.447,0.226,0.196,west-northwest,1.9,No
2015/11/03,20:20,0.493,0.277,0.513,0.470,0.444,0.227,0.196,west-northwest,3.6,No
2015/11/03,20:30,0.496,0.278,0.511,0.468,0.442,0.227,0.196,west-northwest,3.9,No
2015/11/03,20:40,0.493,0.277,0.510,0.467,0.447,0.227,0.196,west-northwest,4.2,No
2015/11/03,20:50,0.495,0.277,0.512,0.469,0.443,0.228,0.196,west,3.9,No
2015/11/03,21:00,0.493,0.278,0.508,0.467,0.444,0.227,0.198,west-northwest,4.4,No
2015/11/03,21:10,0.492,0.276,0.512,0.468,0.445,0.228,0.195,west-northwest,3.2,No
2015/11/03,21:20,0.497,0.276,0.509,0.468,0.443,0.228,0.197,west-northwest,2.8,No
2015/11/03,21:30,0.493,0.277,0.510,0.470,0.445,0.227,0.196,west-northwest,1.8,No
2015/11/03,21:40,0.492,0.278,0.514,0.466,0.446,0.228,0.196,west-northwest,2.2,No
2015/11/03,21:50,0.495,0.277,0.510,0.471,0.442,0.228,0.197,northwest,2.2,No
2015/11/03,22:00,0.493,0.278,0.511,0.467,0.446,0.227,0.197,north-northwest,2.2,No
2015/11/03,22:10,0.495,0.278,0.513,0.468,0.445,0.225,0.196,northwest,3.8,No
2015/11/03,22:20,0.496,0.276,0.509,0.469,0.444,0.227,0.197,north-northwest,5.6,No
2015/11/03,22:30,0.493,0.278,0.511,0.467,0.445,0.227,0.196,northwest,5.1,No
2015/11/03,22:40,0.497,0.278,0.512,0.468,0.444,0.227,0.196,north-northwest,5.2,No
2015/11/03,22:50,0.493,0.277,0.512,0.468,0.445,0.227,0.197,north-northwest,5.3,No
2015/11/03,23:00,0.495,0.277,0.514,0.468,0.446,0.227,0.196,north-northwest,4.8,No
2015/11/03,23:10,0.495,0.277,0.512,0.469,0.446,0.227,0.196,north-northwest,5.4,No
2015/11/03,23:20,0.494,0.277,0.511,0.468,0.444,0.227,0.196,north-northwest,5.4,No
2015/11/03,23:30,0.496,0.279,0.512,0.466,0.444,0.227,0.197,north-northwest,6.4,No
2015/11/03,23:40,0.495,0.277,0.511,0.469,0.444,0.228,0.196,northwest,5.7,No
2015/11/03,23:50,0.493,0.276,0.512,0.466,0.444,0.227,0.196,northwest,5.5,No
